FW7166 Weather Reports


Display with metric or nautical units.
time (UTC)temp
F
wind
direction
speed
MPH
gust
MPH
rain 1hr
in
rain 24hr
in
rain mn
in
humidity
%
barometer
mb
20260901131455 68 177 2.0 11.0 0.00 0.00 0.33 70 1012.3
20260901130955 68 206 1.0 11.0 0.00 0.00 0.33 70 1012.5
20260901130454 67 186 1.0 11.0 0.00 0.00 0.33 73 1012.5
20260901125953 67 258 0.0 11.0 0.00 0.00 0.33 73 1012.5
20260901125452 67 162 0.0 11.0 0.00 0.00 0.33 73 1012.9
20260901124951 66 253 1.0 11.0 0.00 0.00 0.33 73 1012.3
20260901124450 66 235 2.0 11.0 0.00 0.00 0.33 73 1012.3
20260901123949 66 229 1.0 11.0 0.00 0.00 0.33 74 1012.2
20260901123448 65 189 2.0 11.0 0.00 0.00 0.33 75 1012.6
20260901122948 66 234 1.0 11.0 0.00 0.00 0.33 77 1011.9
20260901122448 66 241 0.0 11.0 0.00 0.00 0.33 78 1012.4
20260901121947 66 205 0.0 11.0 0.00 0.00 0.33 77 1012.5
20260901121446 65 174 0.0 11.0 0.00 0.00 0.33 79 1012.4
20260901120945 65 245 0.0 11.0 0.00 0.00 0.33 79 1012.7
20260901120445 65 210 1.0 11.0 0.00 0.00 0.33 78 1012.3
20260901115944 65 232 0.0 11.0 0.00 0.00 0.33 78 1012.7
20260901115444 65 265 0.0 11.0 0.00 0.00 0.33 76 1012.2
20260901114944 65 228 0.0 11.0 0.00 0.00 0.33 77 1012.3
20260901114443 65 221 1.0 11.0 0.00 0.00 0.33 77 1012.7
20260901113943 65 212 0.0 11.0 0.00 0.00 0.33 77 1012.5
20260901113442 65 228 0.0 11.0 0.00 0.00 0.33 77 1012.0
20260901112942 65 235 0.0 11.0 0.00 0.00 0.33 77 1012.3
20260901112442 65 184 0.0 11.0 0.00 0.00 0.33 78 1012.6
20260901111941 65 267 0.0 11.0 0.00 0.00 0.33 79 1012.2
20260901111440 64 271 0.0 11.0 0.00 0.00 0.33 82 1012.0
20260901110940 64 221 1.0 11.0 0.00 0.00 0.33 81 1012.4
20260901110439 64 174 0.0 11.0 0.00 0.00 0.33 82 1012.3
20260901105938 64 277 0.0 11.0 0.00 0.00 0.33 82 1012.4
20260901105438 64 212 1.0 11.0 0.00 0.00 0.33 84 1012.5
20260901104938 64 340 0.0 11.0 0.00 0.00 0.33 84 1011.9
20260901104437 64 275 0.0 11.0 0.00 0.00 0.33 87 1012.1
20260901103937 63 277 0.0 11.0 0.00 0.00 0.33 87 1012.0
20260901103437 63 321 0.0 11.0 0.00 0.00 0.33 86 1012.1
20260901102937 63 264 0.0 11.0 0.00 0.00 0.33 86 1011.8
20260901101922 63 294 0.0 11.0 0.00 0.00 0.33 87 1011.7
20260901101422 63 295 0.0 11.0 0.00 0.00 0.33 87 1011.7
20260901100922 63 307 0.0 11.0 0.00 0.00 0.33 88 1011.7
20260901100422 63 304 0.0 11.0 0.00 0.00 0.33 88 1011.8
20260901095922 63 298 0.0 11.0 0.00 0.00 0.33 88 1011.8
20260901095422 63 287 0.0 11.0 0.00 0.00 0.33 89 1011.6
20260901094922 63 318 0.0 11.0 0.00 0.00 0.33 89 1011.5
20260901094422 63 253 0.0 11.0 0.00 0.00 0.33 90 1011.5
20260901093921 62 274 0.0 11.0 0.00 0.00 0.33 92 1011.5
20260901093420 62 264 0.0 11.0 0.00 0.00 0.33 92 1011.7
20260901092405 62 294 0.0 11.0 0.00 0.00 0.33 92 1011.4
20260901091905 62 332 0.0 11.0 0.00 0.00 0.33 93 1011.5
20260901091403 61 281 0.0 11.0 0.00 0.00 0.33 94 1011.3
20260901090903 61 253 0.0 11.0 0.00 0.00 0.33 94 1011.6
20260901090402 61 320 0.0 11.0 0.00 0.00 0.33 94 1011.3
20260901085901 62 289 0.0 11.0 0.00 0.00 0.33 94 1011.3
20260901085400 62 223 0.0 11.0 0.00 0.00 0.33 94 1011.2
20260901084900 62 202 0.0 11.0 0.00 0.00 0.33 96 1011.2
20260901084400 61 256 0.0 11.0 0.00 0.00 0.33 96 1011.0
20260901083344 61 242 0.0 11.0 0.00 0.00 0.33 98 1011.1
20260901082844 60 244 0.0 11.0 0.00 0.00 0.33 98 1010.9
20260901082343 60 245 0.0 11.0 0.00 0.00 0.33 98 1011.2
20260901080812 60 257 0.0 11.0 0.00 0.00 0.33 98 1010.9
20260901080311 60 252 0.0 11.0 0.00 0.00 0.33 98 1010.9
20260901075254 60 332 0.0 11.0 0.00 0.00 0.33 98 1011.2
20260901074753 60 263 0.0 11.0 0.00 0.00 0.33 98 1010.8
20260901073738 59 287 0.0 11.0 0.00 0.00 0.33 98 1010.7
20260901073238 59 275 0.0 11.0 0.00 0.00 0.33 98 1010.8
20260901072738 59 279 0.0 11.0 0.00 0.00 0.33 98 1010.7
20260901071207 59 275 0.0 11.0 0.00 0.00 0.33 98 1010.3
20260901070152 59 241 0.0 11.0 0.00 0.00 0.33 99 1010.4
20260901065651 59 306 0.0 11.0 0.00 0.00 0.33 98 1010.5
20260901065151 59 296 0.0 11.0 0.00 0.00 0.33 99 1010.5
20260901064651 59 209 0.0 11.0 0.00 0.00 0.33 99 1010.3
20260901064151 59 259 0.0 11.0 0.00 0.00 0.33 99 1010.4
20260901063650 59 238 0.0 11.0 0.00 0.00 0.33 99 1010.2
20260901063150 59 251 0.0 11.0 0.00 0.00 0.33 99 1010.3
20260901062649 59 329 0.0 11.0 0.00 0.00 0.33 99 1010.3
20260901061632 59 278 0.0 11.0 0.00 0.00 0.33 99 1010.2
20260901061131 58 271 0.0 11.0 0.00 0.00 0.33 99 1010.3
20260901060631 58 312 0.0 11.0 0.00 0.00 0.33 99 1010.2
20260901060130 58 311 0.0 11.0 0.00 0.00 0.33 99 1010.1
20260901055629 58 313 0.0 11.0 0.00 0.00 0.33 99 1010.4
20260901055129 58 304 0.0 11.0 0.00 0.00 0.33 99 1010.2
20260901054628 58 212 0.0 11.0 0.00 0.00 0.33 99 1010.4
20260901054127 58 205 0.0 11.0 0.00 0.00 0.33 99 1010.5
20260901053626 58 205 0.0 11.0 0.00 0.00 0.33 99 1010.2
20260901053126 58 205 0.0 11.0 0.00 0.00 0.33 99 1010.7
20260901052626 58 205 0.0 11.0 0.00 0.00 0.33 99 1010.6
20260901051611 57 205 0.0 11.0 0.00 0.00 0.33 99 1010.3
20260901051110 57 205 0.0 11.0 0.00 0.00 0.33 99 1010.4
20260901050610 57 205 0.0 11.0 0.00 0.00 0.33 99 1010.3
20260901050109 57 205 0.0 11.0 0.00 0.00 0.33 99 1010.5
20260901045609 57 338 0.0 11.0 0.00 0.00 0.33 99 1010.3
20260901045109 57 332 0.0 11.0 0.00 0.00 0.33 99 1010.0
20260901044054 57 277 0.0 11.0 0.00 0.00 0.33 98 1010.2
20260901043554 57 281 0.0 11.0 0.00 0.00 0.33 98 1009.9
20260901042539 57 277 0.0 11.0 0.00 0.00 0.33 98 1009.8
20260901040452 57 338 0.0 11.0 0.03 0.00 0.32 98 1009.8
20260901035952 57 331 0.0 11.0 0.06 0.00 0.32 98 1010.1
20260901035451 57 170 0.0 11.0 0.06 0.00 0.32 98 1010.2
20260901034434 57 170 0.0 11.0 0.06 0.00 0.32 98 1010.0
20260901033934 57 170 0.0 11.0 0.06 0.00 0.32 98 1010.2
20260901033433 57 170 0.0 11.0 0.08 0.00 0.32 98 1009.8
20260901032933 57 170 0.0 11.0 0.08 0.00 0.32 98 1009.7
20260901032433 57 170 0.0 11.0 0.10 0.00 0.32 98 1009.8
20260901031932 57 170 0.0 11.0 0.11 0.00 0.32 98 1009.8
20260901030916 57 170 0.0 11.0 0.13 0.00 0.31 98 1009.8
20260901025344 57 171 0.0 11.0 0.19 0.00 0.26 98 1010.1
20260901024844 57 171 0.0 11.0 0.20 0.00 0.26 98 1009.7
20260901024343 57 170 0.0 11.0 0.21 0.00 0.25 98 1009.7
20260901023842 57 169 0.0 11.0 0.24 0.00 0.25 98 1009.8
20260901023342 57 170 0.0 11.0 0.22 0.00 0.24 98 1009.7
20260901022841 57 171 0.0 11.0 0.22 0.00 0.24 98 1009.7
20260901022341 57 170 0.0 11.0 0.20 0.00 0.22 98 1009.9
20260901021326 57 171 0.0 11.0 0.17 0.00 0.19 98 1009.9
20260901020310 57 171 0.0 11.0 0.13 0.00 0.14 98 1009.7
20260901015810 57 171 0.0 11.0 0.09 0.00 0.10 98 1009.8
20260901015309 57 172 0.0 11.0 0.05 0.00 0.06 98 1009.9
20260901014808 57 170 0.0 11.0 0.03 0.00 0.05 98 1009.7
20260901014308 57 171 0.0 11.0 0.03 0.00 0.04 98 1009.7
20260901013807 57 170 0.0 11.0 0.00 0.00 0.02 98 1009.7
20260901012236 57 171 0.0 11.0 0.00 0.00 0.01 98 1009.8
20260901011735 57 170 0.0 11.0 0.01 0.00 0.01 98 1009.5
20260901011235 57 170 0.0 11.0 0.01 0.00 0.01 98 1009.7
20260901010734 56 170 0.0 11.0 0.01 0.00 0.01 98 1009.8
20260901010233 56 169 0.0 11.0 0.01 0.00 0.01 98 1009.8
20260901005733 56 170 0.0 11.0 0.01 0.00 0.01 98 1010.0
20260901005232 56 170 0.0 11.0 0.01 0.00 0.01 98 1009.9
20260901004731 56 171 0.0 11.0 0.01 0.00 0.01 98 1009.8
20260901003715 56 171 0.0 11.0 0.01 0.00 0.01 98 1010.0
20260901002146 56 170 0.0 11.0 0.00 0.00 0.00 98 1009.8
20260901001644 56 170 0.0 11.0 0.00 0.00 0.00 98 1009.7
20260901001144 56 169 0.0 11.0 0.00 0.00 0.00 98 1009.7
20260901000644 56 170 0.0 11.0 0.00 0.00 0.00 99 1009.7
20260901000144 56 169 0.0 11.0 0.00 0.00 0.00 99 1009.7
20260831235643 55 170 0.0 11.0 0.00 0.00 0.00 99 1009.8
20260831235143 55 172 0.0 11.0 0.00 0.00 0.00 98 1009.5
20260831234127 54 182 0.0 11.0 0.00 0.00 0.00 97 1009.9
20260831233625 55 182 0.0 11.0 0.00 0.00 0.00 97 1009.7
20260831233125 55 183 0.0 11.0 0.00 0.00 0.00 97 1009.7
20260831232625 55 183 0.0 11.0 0.00 0.00 0.00 97 1009.9
20260831232126 55 184 0.0 11.0 0.00 0.00 0.00 97 1010.0
20260831231624 55 185 0.0 11.0 0.00 0.00 0.00 97 1009.7
20260831231124 55 185 0.0 11.0 0.00 0.00 0.00 97 1009.8
20260831230623 56 186 0.0 11.0 0.00 0.00 0.00 97 1010.0
20260831230122 56 186 0.0 11.0 0.00 0.00 0.00 97 1009.6
20260831225622 56 183 0.0 11.0 0.00 0.00 0.00 97 1010.0
20260831224606 56 180 0.0 11.0 0.00 0.00 0.00 98 1009.9
20260831224104 56 181 0.0 11.0 0.00 0.00 0.00 98 1010.1
20260831223604 56 181 0.0 11.0 0.00 0.00 0.00 98 1010.2
20260831223103 56 182 0.0 11.0 0.00 0.00 0.00 98 1009.9
20260831222047 56 183 0.0 11.0 0.00 0.00 0.00 97 1010.2
20260831221547 56 184 0.0 11.0 0.00 0.00 0.00 97 1010.0
20260831221048 56 185 0.0 11.0 0.00 0.00 0.00 97 1010.0
20260831220547 56 186 0.0 11.0 0.00 0.00 0.00 97 1010.0
20260831220046 56 186 0.0 11.0 0.00 0.00 0.00 97 1009.9
20260831215546 56 187 0.0 11.0 0.00 0.00 0.70 97 1009.9
20260831215047 56 185 0.0 11.0 0.00 0.00 0.70 97 1009.7
20260831214546 56 186 0.0 11.0 0.00 0.00 0.70 97 1009.9
20260831214046 57 186 0.0 11.0 0.00 0.00 0.70 97 1009.8
20260831213031 57 183 0.0 11.0 0.00 0.00 0.70 97 1009.8
20260831212529 57 181 0.0 11.0 0.00 0.00 0.70 97 1009.8
20260831211513 57 180 0.0 11.0 0.00 0.00 0.70 97 1009.8
20260831210458 57 178 0.0 11.0 0.01 0.00 0.70 97 1009.4
20260831205957 57 179 0.0 11.0 0.01 0.00 0.70 97 1009.6
20260831204943 58 174 0.0 11.0 0.01 0.00 0.70 97 1009.6
20260831204443 58 274 0.0 11.0 0.01 0.00 0.70 97 1009.4
20260831203942 58 279 0.0 11.0 0.01 0.00 0.70 97 1009.5
20260831202927 58 273 0.0 11.0 0.01 0.00 0.70 97 1009.5
20260831202426 58 274 0.0 11.0 0.01 0.00 0.70 97 1009.1
20260831201925 58 278 0.0 11.0 0.01 0.00 0.70 97 1009.5
20260831201424 58 284 0.0 11.0 0.01 0.00 0.70 97 1009.5
20260831200923 58 279 0.0 11.0 0.00 0.00 0.69 97 1009.4
20260831200422 58 280 0.0 11.0 0.00 0.00 0.69 97 1009.2
20260831195922 58 277 0.0 11.0 0.00 0.00 0.69 96 1009.4
20260831195421 58 276 0.0 11.0 0.00 0.00 0.69 96 1009.4
20260831194921 58 276 0.0 11.0 0.00 0.00 0.69 96 1009.2
20260831194419 58 281 0.0 11.0 0.00 0.00 0.69 96 1009.1
20260831193404 58 278 0.0 11.0 0.00 0.00 0.69 97 1009.5
20260831191832 58 258 0.0 11.0 0.00 0.00 0.69 96 1009.5
20260831191332 59 252 0.0 11.0 0.00 0.00 0.69 96 1009.4
20260831190832 59 252 0.0 11.0 0.00 0.00 0.69 96 1009.3
20260831190332 59 252 0.0 11.0 0.00 0.00 0.69 96 1009.4
20260831185832 59 252 0.0 11.0 0.00 0.00 0.69 96 1009.1
20260831185331 59 251 0.0 11.0 0.00 0.00 0.69 96 1009.2
20260831184831 59 252 0.0 11.0 0.00 0.00 0.69 96 1009.1
20260831184330 59 251 0.0 11.0 0.00 0.00 0.69 96 1009.3
20260831183830 59 251 0.0 11.0 0.00 0.00 0.69 96 1009.2
20260831182815 59 251 0.0 11.0 0.00 0.00 0.69 96 1009.2
20260831182315 59 251 0.0 11.0 0.00 0.00 0.69 96 1009.3
20260831181815 59 251 0.0 11.0 0.03 0.00 0.69 96 1009.2
20260831181314 59 251 0.0 11.0 0.05 0.00 0.69 96 1009.2
20260831180813 59 251 0.0 11.0 0.12 0.00 0.69 96 1009.2
20260831175757 59 251 0.0 11.0 0.25 0.00 0.69 96 1009.2
20260831175257 59 251 0.0 11.0 0.43 0.00 0.69 96 1008.8
20260831174757 59 251 0.0 11.0 0.49 0.00 0.69 96 1009.0
20260831174257 59 251 0.0 11.0 0.53 0.00 0.69 95 1009.2
20260831173757 59 251 0.0 11.0 0.58 0.00 0.69 95 1008.9
20260831172741 59 251 0.0 11.0 0.63 0.00 0.69 95 1008.8
20260831172241 59 251 0.0 11.0 0.62 0.00 0.68 95 1008.8
20260831171741 59 251 0.0 11.0 0.60 0.00 0.66 94 1009.1
20260831170210 60 220 0.0 11.0 0.48 0.00 0.53 93 1009.1
20260831165709 61 220 0.0 11.0 0.38 0.00 0.44 92 1009.1
20260831165208 61 206 0.0 11.0 0.21 0.00 0.27 91 1009.3
20260831164707 61 179 0.0 11.0 0.17 0.00 0.22 90 1008.9
20260831164207 62 183 1.0 11.0 0.12 0.00 0.17 90 1009.2
20260831163706 62 178 1.0 11.0 0.06 0.00 0.10 90 1008.7
20260831163205 63 170 0.0 11.0 0.03 0.00 0.05 90 1008.8
20260831162705 63 156 1.0 11.0 0.03 0.00 0.05 90 1008.7
20260831162204 63 158 0.0 11.0 0.03 0.00 0.05 91 1008.7
20260831161704 63 154 0.0 11.0 0.03 0.00 0.05 92 1008.8
20260831160647 63 153 0.0 11.0 0.03 0.00 0.05 92 1008.8
20260831160147 63 146 0.0 11.0 0.03 0.00 0.05 92 1009.0
20260831155646 63 152 0.0 11.0 0.03 0.00 0.05 92 1008.9
20260831155146 63 157 0.0 11.0 0.05 0.00 0.05 92 1009.0
20260831154646 63 161 0.0 11.0 0.05 0.00 0.05 91 1008.9
20260831153629 62 169 0.0 11.0 0.03 0.00 0.03 90 1009.2
20260831153129 62 172 0.0 11.0 0.02 0.00 0.02 90 1009.2
20260831152629 62 172 0.0 11.0 0.02 0.00 0.02 89 1009.2
20260831152128 63 173 0.0 11.0 0.02 0.00 0.02 89 1009.2
20260831151628 63 174 0.0 11.0 0.02 0.00 0.02 88 1009.2
20260831150612 63 174 0.0 11.0 0.01 0.00 0.01 86 1009.3
20260831150112 63 176 0.0 11.0 0.01 0.00 0.01 85 1009.3
20260831145611 64 155 2.0 11.0 0.01 0.00 0.01 83 1009.3
20260831145110 64 156 2.0 11.0 0.00 0.00 0.00 82 1009.2
20260831144610 64 138 3.0 11.0 0.00 0.00 0.00 82 1009.4
20260831144109 64 135 0.0 11.0 0.00 0.00 0.00 83 1009.4
20260831143054 64 349 0.0 11.0 0.00 0.00 0.00 84 1009.1
20260831142553 64 342 0.0 11.0 0.00 0.00 0.00 85 1009.3
20260831142053 64 265 0.0 11.0 0.00 0.00 0.00 86 1009.2
20260831141553 63 255 0.0 11.0 0.00 0.00 0.00 86 1009.2
20260831141053 63 352 0.0 11.0 0.00 0.00 0.00 86 1008.8
20260831140552 63 343 0.0 11.0 0.00 0.00 0.00 85 1009.3
20260831140052 63 252 0.0 11.0 0.00 0.00 0.00 87 1009.1
20260831135035 63 351 0.0 11.0 0.00 0.00 0.00 88 1009.5
20260831134535 62 349 0.0 11.0 0.00 0.00 0.00 87 1009.4
20260831134035 62 350 0.0 11.0 0.00 0.00 0.00 86 1009.4
20260831133533 62 347 0.0 11.0 0.00 0.00 0.00 86 1009.2
20260831133033 62 351 0.0 11.0 0.00 0.00 0.00 88 1009.4
20260831132533 62 351 0.0 11.0 0.00 0.00 0.00 88 1009.7
20260831132032 62 353 0.0 11.0 0.00 0.00 0.00 87 1009.6